{"data":{"norad_id":49094,"intl_designator":"2021-075V","name":"ONEWEB-0308","alt_names":[],"object_type":"PAYLOAD","status":"ACTIVE","operator":null,"country":"UK","launch_date":"2021-08-21","launch_site_code":"TYMSC","launch_vehicle":null,"mission":null,"orbit_class":"UNKNOWN","rcs_meters":null,"size_class":null,"mass_kg":null,"dimensions":null,"purposes":["comms"],"wikipedia_slug":null,"has_3d_model":false,"image_url":null,"decayed_at":null,"tle_current":{"epoch":"2026-09-20T03:15:19.276128Z","epoch_age_seconds":53472,"freshness":"FRESH","line1":"1 49094U 21075V   26263.13563977 -.00000253  00000+0 -73992-3 0  9995","line2":"2 49094  87.8985 331.8133 0001858  97.9330 262.2010 13.12442267247017","mean_motion":13.12442267,"eccentricity":0.0001858,"inclination_deg":87.8985,"raan_deg":331.8133,"arg_perigee_deg":97.933,"mean_anomaly_deg":262.201,"bstar":-0.00073992,"rev_number":24701,"period_min":109.71911193409,"perigee_km":1212.3155495867,"apogee_km":1215.1366859213,"semimajor_km":7591.863117754,"source":"CELESTRAK","updated_at":"2026-09-20T09:00:44.656505Z"}}}